Погода в Эшме

Турция     38°23′50″N   28°58′10″E
темп.,
°C
ветер,
м/с
пор.,
м/с
влажн.,
%
обл.,
%
осадки,
мм/ч
давл.,
гПа
погр.,
м
18 мая, вт
вт1800:00+15з11595 0.0 101211
03:00+14ююв22600 0.0 101111
06:00+13юв22600 0.0 101111
09:00+20ю35390 0.0 1011535
12:00+25зюз68275 0.0 10101710
15:00+27зюз89236 0.0 10092256
18:00+25з1010250 0.0 10092205
21:00+18зсз610480 0.0 1012218
19 мая, ср
ср1900:00+16зсз34505 0.0 101448
03:00+14с226198 0.0 101511
06:00+12всв11700 0.0 101511
09:00+19вюв11410 0.0 1015472
12:00+24ю22245 0.0 10141484
15:00+28зюз34160 0.0 10112020
18:00+28з56190 0.0 10102015
21:00+20з33375 0.0 101112
20 мая, чт
чт2000:00+17з11480 0.0 101111
03:00+15юв11510 0.0 101011
06:00+15юв22530 0.0 101011
09:00+22ю35300 0.0 1009532
12:00+27юз89181 0.0 10081841
15:00+28юз910205 0.0 10082013
18:00+26з87210 0.0 10081933
21:00+19зсз45360 0.0 100950
21 мая, пт
пт2100:00+15з11520 0.0 100911
03:00+14юв11530 0.0 100911
06:00+14юв325187 0.0 100711
09:00+21ю8133234 0.0 10061622
12:00+24юз11143046 0.0 10052529
15:00+21юз12133721 0.0 10052077
18:00+18зюз10114120 0.1 10051884
21:00+8зсз799680 0.8 1010396
22 мая, сб
сб2200:00+8з7894100 0.0 1012577
03:00+7з6995100 0.2 1013528
06:00+8зсз6888100 0.2 1013440
09:00+9з3580100 0.9 1014489
12:00+9зсз6886100 0.6 1015674
15:00+11сз6777100 1.3 1015895
18:00+11зсз6777100 0.5 1014552
21:00+10зсз61188100 0.6 1015711